Time,TemperatureF,DewpointF,PressureIn,WindDirection,WindDirectionDegrees,WindSpeedMPH,WindSpeedGustMPH,Humidity,HourlyPrecipIn,Conditions,Clouds,dailyrainin,SolarRadiationWatts/m^2,SoftwareType,DateUTC
2013-01-07 00:04:00,42.4,32.2,30.12,SSW,209,2.0,7.0,67,0.00,,,0.00,0,Wunderground v.1.15,2013-01-07 05:04:00,
2013-01-07 00:09:00,42.3,32.1,30.12,SSW,209,2.0,7.0,67,0.00,,,0.00,0,Wunderground v.1.15,2013-01-07 05:09:00,
2013-01-07 00:14:00,42.3,32.1,30.11,SSW,209,3.0,7.0,67,0.00,,,0.00,0,Wunderground v.1.15,2013-01-07 05:14:00,
2013-01-07 00:24:00,42.2,32.0,30.12,SSW,209,3.0,7.0,67,0.00,,,0.00,0,Wunderground v.1.15,2013-01-07 05:24:00,
2013-01-07 00:29:00,42.2,32.0,30.12,SSW,209,4.0,7.0,67,0.00,,,0.00,0,Wunderground v.1.15,2013-01-07 05:29:00,
2013-01-07 00:39:00,42.4,32.2,30.12,SSW,209,4.0,7.0,67,0.00,,,0.00,0,Wunderground v.1.15,2013-01-07 05:39:00,
2013-01-07 00:44:00,42.5,32.3,30.12,SSW,209,4.0,7.0,67,0.00,,,0.00,0,Wunderground v.1.15,2013-01-07 05:44:00,
2013-01-07 00:54:00,42.6,32.0,30.12,SSW,209,4.0,7.0,66,0.00,,,0.00,0,Wunderground v.1.15,2013-01-07 05:54:00,
2013-01-07 00:59:00,42.7,32.1,30.13,SSW,209,4.0,4.0,66,0.00,,,0.00,0,Wunderground v.1.15,2013-01-07 05:59:00,
2013-01-07 01:09:00,42.6,32.0,30.13,SSW,209,3.0,7.0,66,0.00,,,0.00,0,Wunderground v.1.15,2013-01-07 06:09:00,
2013-01-07 01:14:00,42.6,32.0,30.12,SSW,209,3.0,7.0,66,0.00,,,0.00,0,Wunderground v.1.15,2013-01-07 06:14:00,
2013-01-07 01:24:00,42.4,32.2,30.13,SSW,209,3.0,7.0,67,0.00,,,0.00,0,Wunderground v.1.15,2013-01-07 06:24:00,
2013-01-07 01:29:00,42.2,32.0,30.13,SSW,209,4.0,4.0,67,0.00,,,0.00,0,Wunderground v.1.15,2013-01-07 06:29:00,
2013-01-07 01:34:00,42.2,32.0,30.13,SSW,209,4.0,5.0,67,0.00,,,0.00,0,Wunderground v.1.15,2013-01-07 06:34:00,
2013-01-07 01:44:00,41.9,31.7,30.14,SSW,209,4.0,7.0,67,0.00,,,0.00,0,Wunderground v.1.15,2013-01-07 06:44:00,
2013-01-07 01:49:00,41.9,31.7,30.14,SSW,209,4.0,7.0,67,0.00,,,0.00,0,Wunderground v.1.15,2013-01-07 06:49:00,
2013-01-07 01:59:00,41.7,31.9,30.14,SSW,209,4.0,8.0,68,0.00,,,0.00,0,Wunderground v.1.15,2013-01-07 06:59:00,
2013-01-07 02:04:00,41.7,31.9,30.14,SSW,209,5.0,8.0,68,0.00,,,0.00,0,Wunderground v.1.15,2013-01-07 07:04:00,
2013-01-07 02:14:00,41.5,31.7,30.15,SSW,209,5.0,7.0,68,0.00,,,0.00,0,Wunderground v.1.15,2013-01-07 07:14:00,
2013-01-07 02:19:00,41.4,31.6,30.15,SSW,209,4.0,7.0,68,0.00,,,0.00,0,Wunderground v.1.15,2013-01-07 07:19:00,
2013-01-07 02:29:00,41.3,31.5,30.15,SSW,209,4.0,7.0,68,0.00,,,0.00,0,Wunderground v.1.15,2013-01-07 07:29:00,
2013-01-07 02:34:00,41.3,31.5,30.15,SSW,209,4.0,7.0,68,0.00,,,0.00,0,Wunderground v.1.15,2013-01-07 07:34:00,
2013-01-07 02:44:00,41.4,31.6,30.16,SSW,209,4.0,7.0,68,0.00,,,0.00,0,Wunderground v.1.15,2013-01-07 07:44:00,
2013-01-07 02:49:00,41.5,31.4,30.16,SSW,209,4.0,7.0,67,0.00,,,0.00,0,Wunderground v.1.15,2013-01-07 07:49:00,
2013-01-07 02:59:00,41.6,31.4,30.16,SSW,209,4.0,4.0,67,0.00,,,0.00,0,Wunderground v.1.15,2013-01-07 07:59:00,
2013-01-07 03:04:00,41.6,31.4,30.16,SSW,209,4.0,7.0,67,0.00,,,0.00,0,Wunderground v.1.15,2013-01-07 08:04:00,
2013-01-07 03:14:00,41.6,31.1,30.16,SW,215,3.0,7.0,66,0.00,,,0.00,0,Wunderground v.1.15,2013-01-07 08:14:00,
2013-01-07 03:19:00,41.5,31.0,30.16,SW,215,3.0,7.0,66,0.00,,,0.00,0,Wunderground v.1.15,2013-01-07 08:19:00,
2013-01-07 03:29:00,41.4,31.3,30.17,SW,215,3.0,3.0,67,0.00,,,0.00,0,Wunderground v.1.15,2013-01-07 08:29:00,
2013-01-07 03:34:00,41.3,31.2,30.17,SW,215,3.0,7.0,67,0.00,,,0.00,0,Wunderground v.1.15,2013-01-07 08:34:00,
2013-01-07 03:44:00,40.9,30.8,30.17,SW,215,3.0,7.0,67,0.00,,,0.00,0,Wunderground v.1.15,2013-01-07 08:44:00,
2013-01-07 03:49:00,40.8,30.7,30.17,SW,215,3.0,3.0,67,0.00,,,0.00,0,Wunderground v.1.15,2013-01-07 08:49:00,
2013-01-07 03:59:00,40.4,30.7,30.18,SW,215,2.0,7.0,68,0.00,,,0.00,0,Wunderground v.1.15,2013-01-07 08:59:00,
2013-01-07 04:04:00,40.3,30.6,30.18,SW,215,2.0,7.0,68,0.00,,,0.00,0,Wunderground v.1.15,2013-01-07 09:04:00,
2013-01-07 04:14:00,40.1,30.7,30.18,SW,215,2.0,7.0,69,0.00,,,0.00,0,Wunderground v.1.15,2013-01-07 09:14:00,
2013-01-07 04:19:00,40.0,30.6,30.18,SW,215,3.0,7.0,69,0.00,,,0.00,0,Wunderground v.1.15,2013-01-07 09:19:00,
2013-01-07 04:29:00,39.9,30.9,30.18,SW,217,4.0,7.0,70,0.00,,,0.00,0,Wunderground v.1.15,2013-01-07 09:29:00,
2013-01-07 04:34:00,39.9,30.9,30.19,SW,219,4.0,7.0,70,0.00,,,0.00,0,Wunderground v.1.15,2013-01-07 09:34:00,
2013-01-07 04:44:00,39.8,30.8,30.19,SW,220,4.0,8.0,70,0.00,,,0.00,0,Wunderground v.1.15,2013-01-07 09:44:00,
2013-01-07 04:54:00,40.0,31.0,30.20,SW,221,5.0,7.0,70,0.00,,,0.00,0,Wunderground v.1.15,2013-01-07 09:54:00,
2013-01-07 04:59:00,40.0,31.0,30.20,SW,224,5.0,7.0,70,0.00,,,0.00,0,Wunderground v.1.15,2013-01-07 09:59:00,
2013-01-07 05:04:00,40.2,31.2,30.20,NW,306,5.0,7.0,70,0.00,,,0.00,0,Wunderground v.1.15,2013-01-07 10:04:00,
2013-01-07 05:14:00,40.7,31.3,30.21,NW,304,6.0,7.0,69,0.00,,,0.00,0,Wunderground v.1.15,2013-01-07 10:14:00,
2013-01-07 05:24:00,41.6,31.8,30.21,NW,319,8.0,9.0,68,0.00,,,0.00,0,Wunderground v.1.15,2013-01-07 10:24:00,
2013-01-07 05:29:00,41.9,31.7,30.22,NW,314,7.0,8.0,67,0.00,,,0.00,0,Wunderground v.1.15,2013-01-07 10:29:00,
2013-01-07 05:34:00,42.2,32.0,30.22,WNW,300,7.0,12.0,67,0.00,,,0.00,0,Wunderground v.1.15,2013-01-07 10:34:00,
2013-01-07 05:44:00,42.4,32.2,30.23,WNW,298,7.0,8.0,67,0.00,,,0.00,0,Wunderground v.1.15,2013-01-07 10:44:00,
2013-01-07 05:54:00,42.7,32.1,30.23,NW,314,7.0,8.0,66,0.00,,,0.00,0,Wunderground v.1.15,2013-01-07 10:54:00,
2013-01-07 05:59:00,42.7,32.1,30.24,NW,313,7.0,7.0,66,0.00,,,0.00,0,Wunderground v.1.15,2013-01-07 10:59:00,
2013-01-07 06:09:00,42.8,32.2,30.24,WNW,300,7.0,9.0,66,0.00,,,0.00,0,Wunderground v.1.15,2013-01-07 11:09:00,
2013-01-07 06:14:00,42.7,32.1,30.24,WNW,296,6.0,9.0,66,0.00,,,0.00,0,Wunderground v.1.15,2013-01-07 11:14:00,
2013-01-07 06:24:00,42.4,31.8,30.25,NW,309,5.0,7.0,66,0.00,,,0.00,0,Wunderground v.1.15,2013-01-07 11:24:00,
2013-01-07 06:29:00,42.2,32.0,30.25,WNW,300,5.0,7.0,67,0.00,,,0.00,0,Wunderground v.1.15,2013-01-07 11:29:00,
2013-01-07 06:39:00,42.0,31.8,30.26,NW,306,6.0,6.0,67,0.00,,,0.00,0,Wunderground v.1.15,2013-01-07 11:39:00,
2013-01-07 06:44:00,42.0,31.8,30.26,NW,309,6.0,7.0,67,0.00,,,0.00,0,Wunderground v.1.15,2013-01-07 11:44:00,
2013-01-07 06:49:00,41.8,31.6,30.26,NW,309,4.0,7.0,67,0.00,,,0.00,0,Wunderground v.1.15,2013-01-07 11:49:00,
2013-01-07 06:59:00,41.5,31.7,30.27,NW,305,4.0,7.0,68,0.00,,,0.00,0,Wunderground v.1.15,2013-01-07 11:59:00,
2013-01-07 07:04:00,41.3,31.5,30.27,NW,305,4.0,7.0,68,0.00,,,0.00,0,Wunderground v.1.15,2013-01-07 12:04:00,
2013-01-07 07:14:00,41.1,31.3,30.27,NW,305,4.0,7.0,68,0.00,,,0.00,0,Wunderground v.1.15,2013-01-07 12:14:00,
2013-01-07 07:19:00,40.9,31.5,30.28,NW,305,4.0,7.0,69,0.00,,,0.00,5,Wunderground v.1.15,2013-01-07 12:19:00,
2013-01-07 07:29:00,40.7,31.3,30.29,NW,305,4.0,7.0,69,0.00,,,0.00,14,Wunderground v.1.15,2013-01-07 12:29:00,
2013-01-07 07:34:00,40.5,31.1,30.29,NW,305,4.0,7.0,69,0.00,,,0.00,23,Wunderground v.1.15,2013-01-07 12:34:00,
2013-01-07 07:44:00,40.4,31.4,30.30,NW,305,3.0,7.0,70,0.00,,,0.00,40,Wunderground v.1.15,2013-01-07 12:44:00,
2013-01-07 07:49:00,40.5,31.5,30.30,NW,305,4.0,4.0,70,0.00,,,0.00,54,Wunderground v.1.15,2013-01-07 12:49:00,
2013-01-07 07:59:00,40.5,31.5,30.30,NW,305,4.0,7.0,70,0.00,,,0.00,83,Wunderground v.1.15,2013-01-07 12:59:00,
2013-01-07 08:04:00,40.6,31.6,30.30,NW,305,4.0,7.0,70,0.00,,,0.00,98,Wunderground v.1.15,2013-01-07 13:04:00,
2013-01-07 08:14:00,40.6,31.6,30.31,NW,305,4.0,5.0,70,0.00,,,0.00,132,Wunderground v.1.15,2013-01-07 13:14:00,
2013-01-07 08:19:00,40.8,31.8,30.31,NW,305,4.0,4.0,70,0.00,,,0.00,149,Wunderground v.1.15,2013-01-07 13:19:00,
2013-01-07 08:29:00,41.1,32.1,30.32,WNW,303,4.0,4.0,70,0.00,,,0.00,185,Wunderground v.1.15,2013-01-07 13:29:00,
2013-01-07 08:34:00,41.4,32.3,30.32,WNW,302,5.0,5.0,70,0.00,,,0.00,200,Wunderground v.1.15,2013-01-07 13:34:00,
2013-01-07 08:44:00,41.8,32.4,30.33,WNW,301,4.0,7.0,69,0.00,,,0.00,232,Wunderground v.1.15,2013-01-07 13:44:00,
2013-01-07 08:49:00,42.1,32.3,30.33,WNW,301,5.0,5.0,68,0.00,,,0.00,248,Wunderground v.1.15,2013-01-07 13:49:00,
2013-01-07 08:59:00,42.7,32.5,30.33,NW,307,6.0,6.0,67,0.00,,,0.00,269,Wunderground v.1.15,2013-01-07 13:59:00,
2013-01-07 09:04:00,43.0,32.4,30.34,WNW,288,6.0,11.0,66,0.00,,,0.00,271,Wunderground v.1.15,2013-01-07 14:04:00,
2013-01-07 09:09:00,43.2,32.2,30.34,WNW,303,7.0,7.0,65,0.00,,,0.00,241,Wunderground v.1.15,2013-01-07 14:09:00,
2013-01-07 09:19:00,43.7,32.3,30.34,NNW,332,6.0,7.0,64,0.00,,,0.00,130,Wunderground v.1.15,2013-01-07 14:19:00,
2013-01-07 09:24:00,44.0,32.2,30.35,WNW,291,7.0,7.0,63,0.00,,,0.00,67,Wunderground v.1.15,2013-01-07 14:24:00,
2013-01-07 09:34:00,44.5,32.3,30.35,NW,314,7.0,9.0,62,0.00,,,0.00,42,Wunderground v.1.15,2013-01-07 14:34:00,
2013-01-07 09:39:00,44.7,32.1,30.35,WNW,300,8.0,13.0,61,0.00,,,0.00,42,Wunderground v.1.15,2013-01-07 14:39:00,
2013-01-07 09:49:00,44.9,31.8,30.36,NW,321,10.0,15.0,60,0.00,,,0.00,42,Wunderground v.1.15,2013-01-07 14:49:00,
2013-01-07 09:54:00,45.0,31.9,30.36,WNW,298,10.0,15.0,60,0.00,,,0.00,42,Wunderground v.1.15,2013-01-07 14:54:00,
2013-01-07 10:04:00,45.2,31.7,30.36,NNW,333,8.0,13.0,59,0.00,,,0.00,44,Wunderground v.1.15,2013-01-07 15:04:00,
2013-01-07 10:09:00,45.3,31.8,30.37,NW,315,9.0,9.0,59,0.00,,,0.00,44,Wunderground v.1.15,2013-01-07 15:09:00,
2013-01-07 10:19:00,45.4,31.9,30.37,WNW,286,10.0,10.0,59,0.00,,,0.00,46,Wunderground v.1.15,2013-01-07 15:19:00,
2013-01-07 10:24:00,45.4,31.9,30.37,NW,323,10.0,10.0,59,0.00,,,0.00,62,Wunderground v.1.15,2013-01-07 15:24:00,
2013-01-07 10:34:00,45.6,32.1,30.37,NNW,327,9.0,10.0,59,0.00,,,0.00,248,Wunderground v.1.15,2013-01-07 15:34:00,
2013-01-07 10:39:00,45.7,32.2,30.37,West,281,9.0,9.0,59,0.00,,,0.00,381,Wunderground v.1.15,2013-01-07 15:39:00,
2013-01-07 10:49:00,46.0,32.5,30.37,WNW,297,7.0,7.0,59,0.00,,,0.00,480,Wunderground v.1.15,2013-01-07 15:49:00,
2013-01-07 10:59:00,46.4,32.8,30.37,NNW,336,8.0,8.0,59,0.00,,,0.00,489,Wunderground v.1.15,2013-01-07 15:59:00,
2013-01-07 11:04:00,46.3,32.3,30.38,NW,309,9.0,15.0,58,0.00,,,0.00,496,Wunderground v.1.15,2013-01-07 16:04:00,
2013-01-07 11:09:00,46.3,32.3,30.38,WNW,300,9.0,13.0,58,0.00,,,0.00,503,Wunderground v.1.15,2013-01-07 16:09:00,
2013-01-07 11:19:00,46.5,32.5,30.38,WNW,303,9.0,12.0,58,0.00,,,0.00,504,Wunderground v.1.15,2013-01-07 16:19:00,
2013-01-07 11:24:00,46.5,32.5,30.37,NNW,334,9.0,12.0,58,0.00,,,0.00,508,Wunderground v.1.15,2013-01-07 16:24:00,
2013-01-07 11:34:00,46.8,32.4,30.37,WNW,294,9.0,9.0,57,0.00,,,0.00,513,Wunderground v.1.15,2013-01-07 16:34:00,
2013-01-07 11:39:00,46.8,31.9,30.37,NNW,333,9.0,10.0,56,0.00,,,0.00,515,Wunderground v.1.15,2013-01-07 16:39:00,
2013-01-07 11:49:00,46.9,32.0,30.38,NNW,331,8.0,13.0,56,0.00,,,0.00,517,Wunderground v.1.15,2013-01-07 16:49:00,
2013-01-07 11:54:00,47.0,31.7,30.37,NW,323,8.0,13.0,55,0.00,,,0.00,517,Wunderground v.1.15,2013-01-07 16:54:00,
2013-01-07 11:59:00,47.1,31.3,30.37,NW,313,7.0,7.0,54,0.00,,,0.00,517,Wunderground v.1.15,2013-01-07 16:59:00,
2013-01-07 12:09:00,47.2,32.3,30.37,North,11,8.0,8.0,56,0.00,,,0.00,517,Wunderground v.1.15,2013-01-07 17:09:00,
2013-01-07 12:19:00,47.4,31.6,30.37,NW,311,7.0,11.0,54,0.00,,,0.00,513,Wunderground v.1.15,2013-01-07 17:19:00,
2013-01-07 12:24:00,47.6,31.3,30.37,North,351,6.0,11.0,53,0.00,,,0.00,515,Wunderground v.1.15,2013-01-07 17:24:00,
2013-01-07 12:34:00,47.1,31.3,30.37,North,355,10.0,10.0,54,0.00,,,0.00,512,Wunderground v.1.15,2013-01-07 17:34:00,
2013-01-07 12:39:00,47.5,31.7,30.37,NNW,337,7.0,16.0,54,0.00,,,0.00,506,Wunderground v.1.15,2013-01-07 17:39:00,
2013-01-07 12:44:00,47.3,31.0,30.37,North,350,7.0,16.0,53,0.00,,,0.00,504,Wunderground v.1.15,2013-01-07 17:44:00,
2013-01-07 12:54:00,47.5,31.7,30.36,NNW,339,8.0,12.0,54,0.00,,,0.00,496,Wunderground v.1.15,2013-01-07 17:54:00,
2013-01-07 13:04:00,47.0,31.7,30.37,NW,325,9.0,15.0,55,0.00,,,0.00,473,Wunderground v.1.15,2013-01-07 18:04:00,
2013-01-07 13:09:00,47.3,31.9,30.36,NNW,348,8.0,8.0,55,0.00,,,0.00,473,Wunderground v.1.15,2013-01-07 18:09:00,
2013-01-07 13:19:00,47.5,30.7,30.37,NNW,338,6.0,6.0,52,0.00,,,0.00,461,Wunderground v.1.15,2013-01-07 18:19:00,
2013-01-07 13:24:00,47.4,30.6,30.36,NNW,342,6.0,12.0,52,0.00,,,0.00,452,Wunderground v.1.15,2013-01-07 18:24:00,
2013-01-07 13:29:00,47.2,30.0,30.37,NNW,335,7.0,7.0,51,0.00,,,0.00,443,Wunderground v.1.15,2013-01-07 18:29:00,
2013-01-07 13:39:00,47.2,30.5,30.37,North,349,8.0,8.0,52,0.00,,,0.00,427,Wunderground v.1.15,2013-01-07 18:39:00,
2013-01-07 13:49:00,46.9,30.6,30.37,North,355,9.0,9.0,53,0.00,,,0.00,411,Wunderground v.1.15,2013-01-07 18:49:00,
2013-01-07 13:54:00,46.7,32.7,30.37,NNE,15,9.0,12.0,58,0.00,,,0.00,404,Wunderground v.1.15,2013-01-07 18:54:00,
2013-01-07 13:59:00,46.1,33.4,30.37,NNW,340,9.0,9.0,61,0.00,,,0.00,392,Wunderground v.1.15,2013-01-07 18:59:00,
2013-01-07 14:04:00,46.1,34.2,30.37,NNE,25,9.0,10.0,63,0.00,,,0.00,381,Wunderground v.1.15,2013-01-07 19:04:00,
2013-01-07 14:09:00,46.0,34.1,30.37,North,11,10.0,14.0,63,0.00,,,0.00,371,Wunderground v.1.15,2013-01-07 19:09:00,
2013-01-07 14:14:00,45.9,33.6,30.37,North,9,11.0,14.0,62,0.00,,,0.00,362,Wunderground v.1.15,2013-01-07 19:14:00,
2013-01-07 14:24:00,45.7,34.2,30.38,North,5,11.0,11.0,64,0.00,,,0.00,343,Wunderground v.1.15,2013-01-07 19:24:00,
2013-01-07 14:29:00,45.6,34.1,30.38,North,5,11.0,13.0,64,0.00,,,0.00,330,Wunderground v.1.15,2013-01-07 19:29:00,
2013-01-07 14:34:00,45.5,34.4,30.38,NNE,16,10.0,13.0,65,0.00,,,0.00,320,Wunderground v.1.15,2013-01-07 19:34:00,
2013-01-07 14:39:00,45.4,34.7,30.38,North,10,10.0,10.0,66,0.00,,,0.00,306,Wunderground v.1.15,2013-01-07 19:39:00,
2013-01-07 14:50:00,45.4,35.1,30.39,NNE,19,8.0,8.0,67,0.00,,,0.00,274,Wunderground v.1.15,2013-01-07 19:50:00,
2013-01-07 15:00:00,45.2,35.3,30.39,North,5,7.0,7.0,68,0.00,,,0.00,251,Wunderground v.1.15,2013-01-07 20:00:00,
2013-01-07 15:05:00,45.3,35.4,30.39,North,5,6.0,8.0,68,0.00,,,0.00,237,Wunderground v.1.15,2013-01-07 20:05:00,
2013-01-07 15:15:00,45.2,35.3,30.39,North,5,6.0,8.0,68,0.00,,,0.00,209,Wunderground v.1.15,2013-01-07 20:15:00,
2013-01-07 15:20:00,45.1,34.8,30.39,North,10,7.0,10.0,67,0.00,,,0.00,190,Wunderground v.1.15,2013-01-07 20:20:00,
2013-01-07 15:25:00,45.1,34.8,30.40,North,360,7.0,10.0,67,0.00,,,0.00,172,Wunderground v.1.15,2013-01-07 20:25:00,
2013-01-07 15:35:00,45.2,34.5,30.40,North,355,5.0,7.0,66,0.00,,,0.00,142,Wunderground v.1.15,2013-01-07 20:35:00,
2013-01-07 15:40:00,45.1,34.4,30.40,North,5,5.0,8.0,66,0.00,,,0.00,127,Wunderground v.1.15,2013-01-07 20:40:00,
2013-01-07 15:45:00,45.0,34.7,30.40,North,5,5.0,8.0,67,0.00,,,0.00,111,Wunderground v.1.15,2013-01-07 20:45:00,
2013-01-07 15:50:00,45.0,35.1,30.40,North,10,5.0,5.0,68,0.00,,,0.00,97,Wunderground v.1.15,2013-01-07 20:50:00,
2013-01-07 16:00:00,44.8,34.9,30.41,North,9,4.0,7.0,68,0.00,,,0.00,70,Wunderground v.1.15,2013-01-07 21:00:00,
2013-01-07 16:05:00,44.7,34.8,30.41,North,360,4.0,7.0,68,0.00,,,0.00,56,Wunderground v.1.15,2013-01-07 21:05:00,
2013-01-07 16:15:00,44.5,34.6,30.41,North,5,3.0,7.0,68,0.00,,,0.00,40,Wunderground v.1.15,2013-01-07 21:15:00,
2013-01-07 16:25:00,44.4,34.5,30.42,North,5,3.0,7.0,68,0.00,,,0.00,25,Wunderground v.1.15,2013-01-07 21:25:00,
2013-01-07 16:30:00,44.3,34.8,30.41,North,5,3.0,7.0,69,0.00,,,0.00,21,Wunderground v.1.15,2013-01-07 21:30:00,
2013-01-07 16:35:00,44.2,35.0,30.41,North,5,3.0,7.0,70,0.00,,,0.00,18,Wunderground v.1.15,2013-01-07 21:35:00,
2013-01-07 16:45:00,44.0,34.8,30.42,North,5,3.0,4.0,70,0.00,,,0.00,12,Wunderground v.1.15,2013-01-07 21:45:00,
2013-01-07 16:55:00,43.8,34.6,30.42,North,5,2.0,7.0,70,0.00,,,0.00,5,Wunderground v.1.15,2013-01-07 21:55:00,
2013-01-07 17:00:00,43.7,34.6,30.42,North,5,1.0,7.0,70,0.00,,,0.00,0,Wunderground v.1.15,2013-01-07 22:00:00,
2013-01-07 17:10:00,43.4,34.6,30.42,North,5,1.0,1.0,71,0.00,,,0.00,0,Wunderground v.1.15,2013-01-07 22:10:00,
2013-01-07 17:15:00,43.3,34.5,30.42,North,5,0.0,7.0,71,0.00,,,0.00,0,Wunderground v.1.15,2013-01-07 22:15:00,
2013-01-07 17:25:00,42.9,34.1,30.42,North,5,0.0,7.0,71,0.00,,,0.00,0,Wunderground v.1.15,2013-01-07 22:25:00,
2013-01-07 17:35:00,42.7,33.9,30.42,North,5,0.0,7.0,71,0.00,,,0.00,0,Wunderground v.1.15,2013-01-07 22:35:00,
2013-01-07 17:40:00,42.7,34.3,30.42,North,5,0.0,7.0,72,0.00,,,0.00,0,Wunderground v.1.15,2013-01-07 22:40:00,
2013-01-07 17:50:00,42.7,34.3,30.42,North,5,1.0,1.0,72,0.00,,,0.00,0,Wunderground v.1.15,2013-01-07 22:50:00,
2013-01-07 17:55:00,42.6,34.5,30.42,North,5,0.0,7.0,73,0.00,,,0.00,0,Wunderground v.1.15,2013-01-07 22:55:00,
2013-01-07 18:05:00,42.7,34.6,30.43,North,5,0.0,7.0,73,0.00,,,0.00,0,Wunderground v.1.15,2013-01-07 23:05:00,
2013-01-07 18:10:00,42.7,34.6,30.43,North,5,0.0,7.0,73,0.00,,,0.00,0,Wunderground v.1.15,2013-01-07 23:10:00,
2013-01-07 18:20:00,42.8,34.7,30.43,North,5,0.0,7.0,73,0.00,,,0.00,0,Wunderground v.1.15,2013-01-07 23:20:00,
2013-01-07 18:25:00,42.5,34.5,30.43,North,5,0.0,7.0,73,0.00,,,0.00,0,Wunderground v.1.15,2013-01-07 23:25:00,
2013-01-07 18:35:00,41.9,33.9,30.43,North,5,0.0,7.0,73,0.00,,,0.00,0,Wunderground v.1.15,2013-01-07 23:35:00,
2013-01-07 18:40:00,41.6,33.6,30.43,North,5,1.0,7.0,73,0.00,,,0.00,0,Wunderground v.1.15,2013-01-07 23:40:00,
2013-01-07 18:50:00,40.6,32.6,30.43,North,5,1.0,7.0,73,0.00,,,0.00,0,Wunderground v.1.15,2013-01-07 23:50:00,
2013-01-07 19:00:00,40.0,32.4,30.43,North,5,1.0,7.0,74,0.00,,,0.00,0,Wunderground v.1.15,2013-01-08 00:00:00,
2013-01-07 19:05:00,39.8,32.2,30.44,North,5,1.0,7.0,74,0.00,,,0.00,0,Wunderground v.1.15,2013-01-08 00:05:00,
2013-01-07 19:15:00,39.4,31.8,30.44,North,5,1.0,7.0,74,0.00,,,0.00,0,Wunderground v.1.15,2013-01-08 00:15:00,
2013-01-07 19:20:00,39.3,32.0,30.44,North,5,2.0,2.0,75,0.00,,,0.00,0,Wunderground v.1.15,2013-01-08 00:20:00,
2013-01-07 19:30:00,39.2,31.9,30.43,North,5,2.0,7.0,75,0.00,,,0.00,0,Wunderground v.1.15,2013-01-08 00:30:00,
2013-01-07 19:35:00,39.2,32.3,30.44,North,5,2.0,7.0,76,0.00,,,0.00,0,Wunderground v.1.15,2013-01-08 00:35:00,
2013-01-07 19:45:00,39.1,32.2,30.44,North,5,2.0,7.0,76,0.00,,,0.00,0,Wunderground v.1.15,2013-01-08 00:45:00,
2013-01-07 19:50:00,38.9,32.0,30.43,North,5,2.0,7.0,76,0.00,,,0.00,0,Wunderground v.1.15,2013-01-08 00:50:00,
2013-01-07 20:00:00,38.7,31.8,30.44,North,5,2.0,7.0,76,0.00,,,0.00,0,Wunderground v.1.15,2013-01-08 01:00:00,
2013-01-07 20:05:00,38.5,31.6,30.44,North,5,2.0,7.0,76,0.00,,,0.00,0,Wunderground v.1.15,2013-01-08 01:05:00,
2013-01-07 20:15:00,38.5,31.9,30.43,North,5,2.0,7.0,77,0.00,,,0.00,0,Wunderground v.1.15,2013-01-08 01:15:00,
2013-01-07 20:20:00,38.4,31.8,30.43,North,5,2.0,7.0,77,0.00,,,0.00,0,Wunderground v.1.15,2013-01-08 01:20:00,
2013-01-07 20:30:00,38.2,31.6,30.44,North,5,3.0,7.0,77,0.00,,,0.00,0,Wunderground v.1.15,2013-01-08 01:30:00,
2013-01-07 20:35:00,38.1,31.5,30.44,North,5,2.0,7.0,77,0.00,,,0.00,0,Wunderground v.1.15,2013-01-08 01:35:00,
2013-01-07 20:45:00,38.2,31.6,30.44,North,360,3.0,7.0,77,0.00,,,0.00,0,Wunderground v.1.15,2013-01-08 01:45:00,
2013-01-07 20:55:00,38.1,31.5,30.44,North,360,3.0,7.0,77,0.00,,,0.00,0,Wunderground v.1.15,2013-01-08 01:55:00,
2013-01-07 21:00:00,38.0,31.4,30.44,North,360,3.0,7.0,77,0.00,,,0.00,0,Wunderground v.1.15,2013-01-08 02:00:00,
2013-01-07 21:10:00,37.9,31.3,30.44,North,360,3.0,7.0,77,0.00,,,0.00,0,Wunderground v.1.15,2013-01-08 02:10:00,
2013-01-07 21:15:00,37.9,31.3,30.44,North,360,3.0,7.0,77,0.00,,,0.00,0,Wunderground v.1.15,2013-01-08 02:15:00,
2013-01-07 21:25:00,37.8,31.2,30.44,North,360,3.0,7.0,77,0.00,,,0.00,0,Wunderground v.1.15,2013-01-08 02:25:00,
2013-01-07 21:35:00,37.9,31.0,30.44,North,360,3.0,7.0,76,0.00,,,0.00,0,Wunderground v.1.15,2013-01-08 02:35:00,
2013-01-07 21:40:00,37.9,31.0,30.45,North,360,3.0,3.0,76,0.00,,,0.00,0,Wunderground v.1.15,2013-01-08 02:40:00,
2013-01-07 21:50:00,37.8,30.9,30.45,North,360,3.0,7.0,76,0.00,,,0.00,0,Wunderground v.1.15,2013-01-08 02:50:00,
2013-01-07 21:55:00,37.6,30.4,30.45,North,360,3.0,7.0,75,0.00,,,0.00,0,Wunderground v.1.15,2013-01-08 02:55:00,
2013-01-07 22:00:00,37.4,30.2,30.44,North,355,3.0,7.0,75,0.00,,,0.00,0,Wunderground v.1.15,2013-01-08 03:00:00,
2013-01-07 22:10:00,37.2,30.3,30.45,NNW,346,4.0,7.0,76,0.00,,,0.00,0,Wunderground v.1.15,2013-01-08 03:10:00,
2013-01-07 22:19:00,37.0,30.1,30.45,NNW,342,3.0,7.0,76,0.00,,,0.00,0,Wunderground v.1.15,2013-01-08 03:19:00,
2013-01-07 22:25:00,37.0,30.1,30.45,NNW,342,3.0,7.0,76,0.00,,,0.00,0,Wunderground v.1.15,2013-01-08 03:25:00,
2013-01-07 22:34:00,36.9,30.0,30.45,NNW,342,3.0,7.0,76,0.00,,,0.00,0,Wunderground v.1.15,2013-01-08 03:34:00,
2013-01-07 22:40:00,36.9,30.0,30.45,NNW,342,3.0,7.0,76,0.00,,,0.00,0,Wunderground v.1.15,2013-01-08 03:40:00,
2013-01-07 22:49:00,36.9,30.0,30.44,NNW,342,3.0,7.0,76,0.00,,,0.00,0,Wunderground v.1.15,2013-01-08 03:49:00,
2013-01-07 22:55:00,36.9,30.0,30.45,NNW,342,3.0,7.0,76,0.00,,,0.00,0,Wunderground v.1.15,2013-01-08 03:55:00,
2013-01-07 23:04:00,36.8,29.9,30.44,NNW,342,4.0,7.0,76,0.00,,,0.00,0,Wunderground v.1.15,2013-01-08 04:04:00,
2013-01-07 23:09:00,36.8,29.9,30.45,NNW,342,3.0,3.0,76,0.00,,,0.00,0,Wunderground v.1.15,2013-01-08 04:09:00,
2013-01-07 23:14:00,36.8,29.9,30.44,NNW,342,3.0,7.0,76,0.00,,,0.00,0,Wunderground v.1.15,2013-01-08 04:14:00,
2013-01-07 23:19:00,36.8,29.9,30.45,NNW,342,3.0,3.0,76,0.00,,,0.00,0,Wunderground v.1.15,2013-01-08 04:19:00,
2013-01-07 23:24:00,36.8,29.9,30.44,NNW,342,2.0,7.0,76,0.00,,,0.00,0,Wunderground v.1.15,2013-01-08 04:24:00,
2013-01-07 23:29:00,36.8,29.9,30.44,NNW,342,3.0,3.0,76,0.00,,,0.00,0,Wunderground v.1.15,2013-01-08 04:29:00,
2013-01-07 23:34:00,36.8,29.9,30.44,NNW,341,3.0,7.0,76,0.00,,,0.00,0,Wunderground v.1.15,2013-01-08 04:34:00,
2013-01-07 23:39:00,36.8,29.9,30.44,NNW,341,3.0,7.0,76,0.00,,,0.00,0,Wunderground v.1.15,2013-01-08 04:39:00,
2013-01-07 23:44:00,36.7,29.8,30.44,NNW,341,3.0,7.0,76,0.00,,,0.00,0,Wunderground v.1.15,2013-01-08 04:44:00,
2013-01-07 23:49:00,36.7,29.8,30.44,NNW,341,3.0,7.0,76,0.00,,,0.00,0,Wunderground v.1.15,2013-01-08 04:49:00,
2013-01-07 23:54:00,36.7,29.8,30.44,NNW,340,3.0,7.0,76,0.00,,,0.00,0,Wunderground v.1.15,2013-01-08 04:54:00,
2013-01-07 23:59:00,36.7,29.8,30.44,NNW,340,3.0,7.0,76,0.00,,,0.00,0,Wunderground v.1.15,2013-01-08 04:59:00,